| time (UTC) | temp F | wind direction | speed MPH | gust MPH | rain 1hr in | rain 24hr in | rain mn in | humidity % | barometer mb |
| 20260508080049 | 42 | 194 | 0.0 | 2.0 | 0.00 | 0.00 | 0.00 | 75 | 1014.7 |
| 20260508074519 | 43 | 194 | 0.0 | 2.0 | 0.00 | 0.00 | 0.00 | 74 | 1014.7 |
| 20260508073017 | 43 | 194 | 0.0 | 2.0 | 0.00 | 0.00 | 0.00 | 73 | 1014.7 |
| 20260508071514 | 44 | 193 | 0.0 | 2.0 | 0.00 | 0.00 | 0.00 | 72 | 1014.7 |
| 20260508070020 | 45 | 193 | 0.0 | 1.0 | 0.00 | 0.00 | 0.00 | 72 | 1014.6 |
| 20260508064528 | 45 | 193 | 1.0 | 3.0 | 0.00 | 0.00 | 0.00 | 71 | 1014.7 |
| 20260508063006 | 46 | 194 | 0.0 | 1.0 | 0.00 | 0.00 | 0.00 | 69 | 1014.6 |
| 20260508061504 | 46 | 194 | 0.0 | 1.0 | 0.00 | 0.00 | 0.00 | 70 | 1014.5 |
| 20260508060005 | 47 | 194 | 0.0 | 1.0 | 0.00 | 0.00 | 0.00 | 68 | 1014.4 |
| 20260508054504 | 48 | 194 | 0.0 | 3.0 | 0.00 | 0.00 | 0.00 | 66 | 1014.4 |
| 20260508053003 | 49 | 193 | 0.0 | 2.0 | 0.00 | 0.00 | 0.00 | 65 | 1014.4 |
| 20260508051502 | 50 | 193 | 0.0 | 2.0 | 0.00 | 0.00 | 0.00 | 65 | 1014.3 |
| 20260508050005 | 51 | 191 | 1.0 | 3.0 | 0.00 | 0.00 | 0.00 | 63 | 1014.3 |
| 20260508044503 | 52 | 203 | 0.0 | 1.0 | 0.00 | 0.00 | 0.00 | 62 | 1014.1 |
| 20260508043001 | 54 | 202 | 0.0 | 3.0 | 0.00 | 0.00 | 0.00 | 61 | 1014.2 |
| 20260508041503 | 55 | 198 | 0.0 | 3.0 | 0.00 | 0.00 | 0.00 | 58 | 1014.1 |
| 20260508040114 | 57 | 198 | 0.0 | 1.0 | 0.00 | 0.00 | 0.00 | 57 | 1013.9 |
| 20260508034600 | 58 | 195 | 1.0 | 6.0 | 0.00 | 0.00 | 0.00 | 50 | 1013.7 |
| 20260508033059 | 60 | 125 | 0.0 | 2.0 | 0.00 | 0.00 | 0.00 | 44 | 1013.5 |
| 20260508031559 | 61 | 125 | 0.0 | 1.0 | 0.00 | 0.00 | 0.00 | 46 | 1013.5 |
| 20260508030059 | 63 | 126 | 0.0 | 1.0 | 0.00 | 0.00 | 0.00 | 43 | 1013.3 |
| 20260508024602 | 65 | 125 | 1.0 | 3.0 | 0.00 | 0.00 | 0.00 | 37 | 1013.0 |
| 20260508023058 | 67 | 174 | 1.0 | 3.0 | 0.00 | 0.00 | 0.00 | 34 | 1012.7 |
| 20260508021558 | 68 | 195 | 0.0 | 9.0 | 0.00 | 0.00 | 0.00 | 36 | 1012.6 |
| 20260508020059 | 69 | 163 | 3.0 | 10.0 | 0.00 | 0.00 | 0.00 | 39 | 1012.6 |
| 20260508014557 | 71 | 191 | 1.0 | 8.0 | 0.00 | 0.00 | 0.00 | 40 | 1012.4 |
| 20260508013056 | 73 | 218 | 3.0 | 8.0 | 0.00 | 0.00 | 0.00 | 39 | 1012.2 |
| 20260508011555 | 75 | 171 | 2.0 | 8.0 | 0.00 | 0.00 | 0.00 | 39 | 1012.1 |
| 20260508010055 | 74 | 173 | 1.0 | 5.0 | 0.00 | 0.00 | 0.00 | 40 | 1012.1 |
| 20260508004555 | 72 | 156 | 1.0 | 5.0 | 0.00 | 0.00 | 0.00 | 41 | 1012.1 |
| 20260508003052 | 72 | 66 | 3.0 | 10.0 | 0.00 | 0.00 | 0.00 | 41 | 1012.0 |
| 20260508001549 | 74 | 69 | 4.0 | 9.0 | 0.00 | 0.00 | 0.00 | 39 | 1012.0 |
| 20260508000054 | 75 | 350 | 2.0 | 10.0 | 0.00 | 0.00 | 0.00 | 38 | 1011.9 |
| 20260507234554 | 75 | 283 | 1.0 | 7.0 | 0.00 | 0.00 | 0.00 | 36 | 1011.9 |
| 20260507233105 | 74 | 4 | 1.0 | 10.0 | 0.00 | 0.00 | 0.00 | 37 | 1011.9 |
| 20260507231545 | 74 | 139 | 2.0 | 9.0 | 0.00 | 0.00 | 0.00 | 37 | 1012.0 |
| 20260507230047 | 74 | 84 | 2.0 | 6.0 | 0.00 | 0.00 | 0.00 | 35 | 1012.1 |
| 20260507224541 | 74 | 51 | 3.0 | 10.0 | 0.00 | 0.00 | 0.00 | 35 | 1012.3 |
| 20260507223053 | 74 | 21 | 2.0 | 8.0 | 0.00 | 0.00 | 0.00 | 34 | 1012.4 |
| 20260507221536 | 73 | 304 | 4.0 | 10.0 | 0.00 | 0.00 | 0.00 | 36 | 1012.6 |
| 20260507220038 | 73 | 29 | 4.0 | 9.0 | 0.00 | 0.00 | 0.00 | 36 | 1012.9 |
| 20260507214531 | 73 | 144 | 1.0 | 6.0 | 0.00 | 0.00 | 0.00 | 37 | 1013.0 |
| 20260507213032 | 72 | 317 | 1.0 | 7.0 | 0.00 | 0.00 | 0.00 | 37 | 1013.3 |
| 20260507211533 | 71 | 271 | 3.0 | 7.0 | 0.00 | 0.00 | 0.00 | 40 | 1013.6 |
| 20260507210028 | 71 | 316 | 2.0 | 6.0 | 0.00 | 0.00 | 0.00 | 40 | 1013.9 |
| 20260507204519 | 70 | 81 | 1.0 | 7.0 | 0.00 | 0.00 | 0.00 | 42 | 1014.0 |
| 20260507203016 | 69 | 268 | 1.0 | 7.0 | 0.00 | 0.00 | 0.00 | 42 | 1014.2 |
| 20260507201513 | 68 | 275 | 1.0 | 5.0 | 0.00 | 0.00 | 0.00 | 45 | 1014.5 |
| 20260507200012 | 67 | 334 | 1.0 | 11.0 | 0.00 | 0.00 | 0.00 | 45 | 1014.8 |
| 20260507194523 | 66 | 124 | 2.0 | 9.0 | 0.00 | 0.00 | 0.00 | 43 | 1014.9 |
| 20260507193006 | 66 | 138 | 2.0 | 11.0 | 0.00 | 0.00 | 0.00 | 45 | 1015.0 |
| 20260507191502 | 64 | 98 | 3.0 | 11.0 | 0.00 | 0.00 | 0.00 | 47 | 1015.2 |
| 20260507190115 | 65 | 285 | 3.0 | 10.0 | 0.00 | 0.00 | 0.00 | 48 | 1015.4 |
| 20260507184556 | 64 | 324 | 3.0 | 12.0 | 0.00 | 0.00 | 0.00 | 48 | 1015.4 |
| 20260507183113 | 63 | 66 | 4.0 | 9.0 | 0.00 | 0.00 | 0.00 | 50 | 1015.4 |
| 20260507181557 | 62 | 57 | 1.0 | 10.0 | 0.00 | 0.00 | 0.00 | 50 | 1015.5 |
| 20260507180052 | 62 | 284 | 2.0 | 8.0 | 0.00 | 0.00 | 0.00 | 52 | 1015.5 |
| 20260507174556 | 61 | 260 | 2.0 | 6.0 | 0.00 | 0.00 | 0.00 | 52 | 1015.7 |
| 20260507173050 | 62 | 85 | 2.0 | 7.0 | 0.00 | 0.00 | 0.00 | 51 | 1015.9 |
| 20260507171543 | 60 | 235 | 3.0 | 12.0 | 0.00 | 0.00 | 0.00 | 54 | 1015.9 |
| 20260507170044 | 60 | 226 | 1.0 | 7.0 | 0.00 | 0.00 | 0.00 | 52 | 1016.1 |
| 20260507164551 | 59 | 225 | 4.0 | 9.0 | 0.00 | 0.00 | 0.00 | 54 | 1016.0 |
| 20260507163036 | 58 | 125 | 4.0 | 10.0 | 0.00 | 0.00 | 0.00 | 55 | 1016.1 |
| 20260507161547 | 57 | 261 | 4.0 | 10.0 | 0.00 | 0.00 | 0.00 | 58 | 1016.2 |
| 20260507160031 | 56 | 77 | 3.0 | 9.0 | 0.00 | 0.00 | 0.00 | 58 | 1016.3 |
| 20260507154530 | 56 | 66 | 3.0 | 16.0 | 0.00 | 0.00 | 0.00 | 59 | 1016.3 |
| 20260507153034 | 55 | 75 | 4.0 | 16.0 | 0.00 | 0.00 | 0.00 | 59 | 1016.4 |
| 20260507151524 | 55 | 50 | 3.0 | 15.0 | 0.00 | 0.00 | 0.00 | 60 | 1016.4 |
| 20260507150026 | 54 | 56 | 2.0 | 11.0 | 0.00 | 0.00 | 0.00 | 60 | 1016.6 |
| 20260507144523 | 53 | 74 | 3.0 | 12.0 | 0.00 | 0.00 | 0.00 | 63 | 1016.6 |
| 20260507143022 | 49 | 114 | 2.0 | 10.0 | 0.00 | 0.00 | 0.00 | 73 | 1016.7 |
| 20260507141520 | 47 | 95 | 1.0 | 7.0 | 0.00 | 0.00 | 0.00 | 77 | 1016.7 |
| 20260507140021 | 47 | 152 | 0.0 | 4.0 | 0.00 | 0.00 | 0.00 | 74 | 1016.5 |
| 20260507134512 | 48 | 247 | 4.0 | 11.0 | 0.00 | 0.00 | 0.00 | 72 | 1016.4 |
| 20260507133010 | 48 | 195 | 1.0 | 8.0 | 0.00 | 0.00 | 0.00 | 72 | 1016.2 |
| 20260507131516 | 48 | 199 | 2.0 | 4.0 | 0.00 | 0.00 | 0.00 | 71 | 1016.1 |
| 20260507130006 | 50 | 129 | 0.0 | 4.0 | 0.00 | 0.00 | 0.00 | 68 | 1016.2 |
| 20260507124511 | 49 | 120 | 0.0 | 5.0 | 0.00 | 0.00 | 0.00 | 68 | 1016.3 |
| 20260507123003 | 49 | 301 | 0.0 | 10.0 | 0.00 | 0.00 | 0.00 | 70 | 1016.4 |
| 20260507121508 | 50 | 171 | 1.0 | 3.0 | 0.00 | 0.00 | 0.00 | 66 | 1016.4 |
| 20260507120006 | 51 | 118 | 2.0 | 8.0 | 0.00 | 0.00 | 0.00 | 65 | 1016.5 |
| 20260507114610 | 51 | 158 | 3.0 | 7.0 | 0.00 | 0.00 | 0.00 | 63 | 1016.5 |
| 20260507113129 | 51 | 145 | 2.0 | 10.0 | 0.00 | 0.00 | 0.00 | 63 | 1016.5 |
| 20260507111559 | 50 | 154 | 0.0 | 3.0 | 0.00 | 0.00 | 0.00 | 67 | 1016.5 |
| 20260507110055 | 50 | 156 | 0.0 | 5.0 | 0.00 | 0.00 | 0.00 | 65 | 1016.6 |
| 20260507104556 | 50 | 158 | 2.0 | 5.0 | 0.00 | 0.00 | 0.00 | 65 | 1016.6 |
| 20260507103056 | 50 | 143 | 2.0 | 4.0 | 0.00 | 0.00 | 0.00 | 65 | 1016.7 |
| 20260507101552 | 51 | 115 | 4.0 | 8.0 | 0.00 | 0.00 | 0.00 | 64 | 1016.5 |
| 20260507100056 | 51 | 186 | 4.0 | 12.0 | 0.00 | 0.00 | 0.00 | 64 | 1016.6 |
| 20260507094550 | 51 | 162 | 1.0 | 6.0 | 0.00 | 0.00 | 0.00 | 65 | 1016.5 |
| 20260507093051 | 51 | 107 | 2.0 | 6.0 | 0.00 | 0.00 | 0.00 | 64 | 1016.6 |
| 20260507091558 | 52 | 157 | 1.0 | 4.0 | 0.00 | 0.00 | 0.00 | 64 | 1016.5 |
| 20260507090048 | 52 | 214 | 0.0 | 9.0 | 0.00 | 0.00 | 0.00 | 64 | 1016.5 |
| 20260507084550 | 51 | 78 | 2.0 | 4.0 | 0.00 | 0.00 | 0.00 | 66 | 1016.6 |
| 20260507083043 | 51 | 127 | 1.0 | 8.0 | 0.00 | 0.00 | 0.00 | 67 | 1016.3 |
| 20260507081547 | 51 | 123 | 0.0 | 4.0 | 0.00 | 0.00 | 0.00 | 68 | 1016.3 |